• MPC Preparation (Info)

  • MPEC 2022-P48 : 2022 OR6

    The following Minor Planet Electronic Circular may be linked-to from your own Web pages, but must not otherwise be redistributed electronically.

    A form allowing access to any MPEC is at the bottom of this page.


    Read MPEC 2022-P47 Read MPEC 2022-P49


    M.P.E.C. 2022-P48                                Issued 2022 August 3, 13:10 UT
    
         The Minor Planet Electronic Circulars contain information on unusual
             minor planets and routine data on comets.  They are published
        on behalf of Division F of the International Astronomical Union by the
              Minor Planet Center, Smithsonian Astrophysical Observatory,
                              Cambridge, MA 02138, U.S.A.
    
                 Prepared using the Tamkin Foundation Computer Network
    
                                  MPC@CFA.HARVARD.EDU
                URL https://www.minorplanetcenter.net/    ISSN 1523-6714
    
                                    2022 OR6                                 
    
    
    Observations:
         K22O06R* C2022 07 26.43909721 31 51.223-19 48 09.35         21.80wUEP048F52
         K22O06R  C2022 07 26.46085021 31 51.787-19 47 10.71         22.12wUEP048F52
         K22O06R  C2022 07 26.47173321 31 52.051-19 46 41.12         22.06wUEP048F52
         K22O06R ^C2022 07 27.40584821 32 41.959-19 02 39.41         21.46GVEP048568
         K22O06R ^C2022 07 27.40683721 32 41.986-19 02 36.62         21.51GVEP048568
         K22O06R ^C2022 07 27.40781621 32 42.011-19 02 33.78         21.82GVEP048568
         K22O06R ^C2022 07 27.40879521 32 42.038-19 02 30.99         22.18GVEP048568
         K22O06R |C2022 07 29.26041 21 34 16.72 -17 25 24.0          21.2 GVEP048807
         K22O06R |C2022 07 29.26780 21 34 16.93 -17 24 59.3          21.6 GVEP048807
         K22O06R |C2022 07 29.27520 21 34 17.10 -17 24 33.6          21.5 GVEP048807
         K22O06R ^C2022 08 03.39669021 39 10.780-11 41 05.92         21.23GVEP048568
         K22O06R ^C2022 08 03.39766921 39 10.810-11 41 01.23         21.14GVEP048568
         K22O06R ^C2022 08 03.39864521 39 10.838-11 40 56.47         20.92GVEP048568
    
    Observer details:
    568 Mauna Kea.  Observers R. Wainscoat, A. Acohido, T. Burdullis, L. Wells.
        Measurers R. Weryk, R. Wainscoat.  3.6-m Canada-France-Hawaii Telescope +
        CCD.
    807 Cerro Tololo Observatory, La Serena.  Observers T. Linder, R. Holmes, L.
        Horn.  1.00-m f/10.0 astrograph + CCD.
    F52 Pan-STARRS 2, Haleakala.  Observers J. Bulger, T. Lowe, A. Schultz, I.
        Smith.  Measurers K. Chambers, S. Chastel, T. de Boer, J. Fairlamb, H.
        Gao, M. Huber, C.-C. Lin, E. Magnier, Y. Ramanjooloo, R. Wainscoat, R.
        Weryk.  1.8-m Ritchey-Chretien + CCD.
    
    Orbital elements:
    2022 OR6                                                 Earth MOID = 0.0524 AU
    Epoch 2022 Aug. 9.0 TT = JDT 2459800.5                  Veres                   
    M 329.22025              (2000.0)            P               Q                  
    n   0.59100330     Peri.   62.90487     +0.97005920     -0.22677752             
    a   1.4062940      Node   310.06986     +0.16236344     +0.87173566             
    e   0.3025423      Incl.    6.52274     +0.18061912     +0.43433730             
    P   1.67           H   25.29          G   0.15           U   8                  
    Residuals in seconds of arc
    220726 F52  0.1-  0.1+    220727 568  0.0   0.0     220803 568  0.0   0.0
    220726 F52  0.1+  0.0     220727 568  0.0   0.0     220803 568  0.0   0.0
    220726 F52  0.0   0.0     220729 807  0.0   0.0     220803 568  0.0   0.0
    220727 568  0.0   0.0     220729 807  0.2+  0.1-
    220727 568  0.0   0.0     220729 807 (0.1-  0.8+)
    
    Ephemeris:
    2022 OR6                 a,e,i = 1.41, 0.30, 7                   q = 0.9808
    Date    TT    R. A. (2000) Decl.     Delta      r    Elong.  Phase     V
    2022 07 04    21 10 46.6 -28 47 14   0.2631  1.2479   148.1    25.5    24.0
    ...
    2022 07 19    21 25 25.4 -24 13 55   0.1744  1.1800   158.2    18.6    22.8
    ...
    2022 07 27    21 32 18.9 -19 21 30   0.1343  1.1452   163.9    14.3    22.0
    ...
    2022 08 02    21 37 44.5 -13 27 38   0.1077  1.1202   167.1    11.7    21.4
    2022 08 03    21 38 44.1 -12 12 02   0.1036  1.1162   167.3    11.5    21.3
    2022 08 04    21 39 46.0 -10 50 32   0.09966 1.1121   167.4    11.5    21.2
    ...
    2022 08 10    21 47 13.3 -00 05 52   0.07827 1.0888   162.8    16.0    20.8
    ...
    2022 08 18    22 03 48.8 +23 47 22   0.05919 1.0601   142.7    35.3    20.7
    ...
    2022 09 02    00 38 16.0 +76 16 14   0.06815 1.0161    93.9    82.2    22.4
    
    M. P. C. Staff               (C) Copyright 2022 MPC           M.P.E.C. 2022-P48
    


    Read MPEC 2022-P47 Read MPEC 2022-P49


    MPEC number:

    Enter an MPEC number in one of the following forms:

    • 1997-B01 (the full form)
    • J97B01 (the packed version of the full form)
    • B01 (the abbreviated form)